EHI
0 0 0 0 0 0 0 0 0 0 0 0 1 4 8 12 17 23 32 46 58 64 67 72 77 78 77 74 68 63 59 53 42 33 30 29 23 17 14 12 11 10 7 5
0 0 0 0 0 0 0 0 0 0 0 0 1 3 6 10 14 20 28 41 53 61 68 74 76 74 73 71 68 64 60 54 45 35 31 29 24 18 15 14 13 12 8 5
0 0 0 0 0 0 0 0 0 0 0 0 0 1 2 6 11 15 22 34 46 55 63 70 70 66 63 63 63 61 59 55 47 38 32 30 25 20 16 14 14 13 9 6
0 0 0 0 0 0 0 0 0 0 0 0 0 0 1 4 9 13 17 27 40 48 54 58 58 56 55 54 55 55 55 53 47 40 35 32 28 23 19 15 13 11 9 7
0 0 0 0 0 0 0 0 0 0 0 0 0 0 0 3 9 12 16 23 33 40 44 45 46 48 49 50 50 50 50 48 44 39 35 30 26 22 20 17 12 9 7 6
0 0 0 0 0 0 0 0 0 0 0 0 0 0 0 2 7 12 15 19 27 33 37 38 39 41 44 46 48 47 45 41 38 34 31 25 19 17 18 17 11 8 6 5
0 0 0 0 0 0 0 0 0 0 0 0 0 0 0 1 5 11 15 18 24 28 32 34 35 35 36 39 42 41 39 34 29 27 25 20 14 12 14 14 9 6 4 4
0 0 0 0 0 0 0 0 0 0 0 0 0 0 0 1 5 10 13 17 22 25 27 29 30 30 29 31 35 35 32 26 22 21 19 16 11 8 9 8 7 4 2 2
0 0 0 0 0 0 0 0 0 0 0 0 0 0 0 1 5 8 10 14 18 19 21 23 24 23 22 23 28 30 26 20 16 14 13 11 9 7 5 5 5 3 1 1
0 0 0 0 0 0 0 0 0 0 0 0 0 0 0 1 3 5 7 11 13 16 19 20 19 18 18 21 23 23 21 16 11 8 7 7 6 5 4 3 3 2 0 0
0 0 0 0 0 0 0 0 0 0 0 0 0 0 0 1 2 3 4 7 9 12 16 18 17 17 19 20 20 18 15 11 7 5 5 4 3 2 1 2 2 1 0 0
0 0 0 0 0 0 0 0 0 0 0 0 0 0 0 1 2 3 4 5 7 8 12 16 17 17 18 18 16 14 10 7 5 4 3 2 1 0 0 1 1 0 0 0
0 0 0 0 0 0 0 0 0 0 0 0 0 0 0 1 2 4 5 6 6 7 9 14 17 15 13 13 11 10 8 6 6 5 3 2 0 0 0 0 0 0 0 0
0 0 0 0 0 0 0 0 0 0 0 0 0 0 0 1 2 4 5 6 7 8 9 13 14 11 9 9 9 8 7 7 6 6 4 2 1 0 0 0 0 0 0 0
0 0 0 0 0 0 0 0 0 0 0 0 1 1 1 2 3 5 6 8 9 10 12 13 11 9 8 9 9 7 6 5 4 5 5 3 2 1 0 0 0 0 0 0
0 0 0 0 0 0 0 1 1 1 1 2 2 2 3 5 8 8 8 10 11 12 13 12 9 8 8 9 8 6 4 2 2 3 4 4 2 1 0 0 0 0 0 0
0 0 0 0 0 0 0 2 4 5 6 7 7 7 8 11 13 11 9 11 13 13 14 12 9 7 7 9 8 5 3 2 2 3 3 3 2 0 0 0 0 0 0 0
0 0 0 0 0 0 0 1 4 7 9 10 11 12 13 14 14 12 10 12 13 13 15 15 12 8 7 8 8 6 5 5 5 4 3 2 1 0 0 0 1 0 0 0
0 0 0 0 0 0 1 1 2 4 6 10 12 13 13 12 12 12 11 12 13 13 16 18 15 11 8 7 9 10 8 8 7 5 4 3 2 1 1 1 1 0 0 1
0 0 0 0 0 0 1 1 1 2 4 8 10 10 7 7 8 10 11 12 12 11 13 15 14 11 8 7 11 12 10 8 7 6 5 4 3 2 2 2 1 1 1 1
0 0 0 0 0 0 1 1 2 3 4 6 7 6 4 3 5 8 10 11 10 9 9 10 10 9 8 8 11 12 10 8 7 6 6 5 4 3 3 3 3 2 2 2
0 0 0 0 0 0 0 1 2 4 4 4 4 4 3 3 5 8 9 9 7 7 7 7 7 8 8 8 8 8 7 6 5 5 6 6 5 4 3 3 3 3 3 3
1 0 0 0 0 0 0 1 1 2 3 3 3 3 3 3 4 5 6 7 7 6 6 4 4 5 5 4 3 3 3 4 3 4 5 4 4 3 3 3 4 3 3 3
1 0 0 0 1 1 1 1 1 1 2 3 3 2 3 2 1 1 3 4 4 4 2 1 1 1 1 1 1 1 1 2 2 3 3 3 3 4 4 4 4 4 3 3
1 0 0 1 2 2 2 2 1 1 2 2 2 1 1 1 1 0 1 1 1 1 0 0 0 0 0 0 0 0 0 1 1 2 3 3 4 5 5 4 3 3 2 2
0 0 0 1 2 2 1 1 2 2 2 2 1 0 0 1 0 0 0 0 0 0 0 0 0 0 0 0 0 0 0 0 1 2 3 3 5 6 6 4 2 1 1 1
Wind_Speed
4 3 6 8 8 7 5 7 10 12 9 3 4 5 5 6 8 8 7 8 10 11 10 11 12 13 13 12 12 13 13 13 11 9 8 8 7 6 6 6 8 8 7 7
1 8 11 8 7 7 9 10 11 11 9 2 2 2 2 3 5 7 8 9 10 8 7 9 11 12 13 14 14 13 13 13 13 10 8 6 7 5 6 6 7 8 8 7
10 8 8 10 10 10 10 10 10 9 6 3 3 3 2 1 2 4 7 8 10 13 13 11 11 11 13 14 15 14 14 13 12 11 7 6 5 4 4 5 6 7 8 7
8 11 9 9 12 11 10 11 9 6 1 2 2 2 5 2 1 3 5 6 8 11 12 11 11 10 12 12 11 12 13 12 11 12 11 12 9 8 7 6 6 7 7 7
8 7 10 12 15 13 11 9 5 3 2 1 3 2 6 2 1 3 2 4 6 8 10 11 11 11 10 10 10 10 11 11 11 12 12 12 8 6 5 6 7 7 6 7
10 8 8 11 12 11 8 2 3 5 5 1 3 2 5 3 5 4 2 3 5 7 8 7 7 7 7 8 9 10 11 11 11 12 12 11 11 10 10 9 9 7 5 5
8 10 8 7 7 6 3 4 3 4 4 4 3 2 6 6 4 4 4 5 5 6 7 7 7 7 7 8 8 9 11 10 11 11 11 11 11 12 13 10 9 8 6 4
5 8 7 6 9 7 4 9 8 5 4 3 2 2 6 6 4 1 3 4 5 5 7 8 7 7 7 8 8 9 10 9 10 11 11 10 10 8 7 9 8 8 6 6
6 7 6 6 6 9 4 4 8 8 3 1 2 4 5 3 4 3 2 3 2 3 5 6 7 6 6 6 7 9 10 10 10 10 10 9 10 9 9 9 8 6 6 6
7 4 6 5 1 3 8 8 6 7 5 2 3 3 4 5 2 1 3 2 1 1 4 5 6 6 6 6 5 6 8 9 8 9 9 10 9 9 9 9 9 8 7 7
7 5 6 3 3 6 3 3 6 5 6 7 3 6 5 6 3 2 2 1 1 1 3 5 5 5 5 5 6 6 6 7 7 8 8 8 8 9 8 8 9 8 7 8
5 6 4 5 4 4 6 6 8 6 4 5 5 6 4 4 3 3 3 3 2 2 3 4 5 5 5 5 5 6 6 6 6 7 7 8 8 8 8 8 8 8 8 8
5 6 2 5 6 4 2 2 5 7 6 5 5 5 1 1 1 2 4 4 5 5 4 4 4 5 5 5 5 6 6 6 6 6 7 7 7 8 8 8 8 8 8 8
6 5 7 8 6 2 1 1 3 6 5 4 6 5 3 4 4 3 3 5 6 5 5 5 4 4 5 5 6 6 6 5 6 6 7 8 8 8 8 7 7 8 8 8
6 4 2 3 3 3 1 1 2 4 6 7 6 7 8 7 6 4 4 5 7 6 6 6 5 5 4 4 5 5 5 6 7 7 7 8 8 7 7 7 7 7 7 8
5 4 3 2 2 3 3 2 1 2 3 5 6 2 2 4 4 4 3 5 6 6 6 6 6 5 5 5 5 5 5 6 6 7 7 7 7 7 7 7 7 7 7 7
3 5 4 1 2 4 3 3 2 3 2 5 5 4 5 6 5 4 3 4 4 4 5 4 4 4 4 5 5 6 6 5 6 6 6 7 8 8 8 8 7 8 7 7
5 4 4 2 3 2 4 1 7 9 7 5 6 5 8 8 6 5 4 4 4 4 3 2 2 2 2 3 3 4 5 6 6 6 6 6 7 8 7 7 7 6 5 6
5 7 5 3 2 1 2 2 2 7 4 3 7 8 8 8 7 6 5 4 4 3 3 2 2 2 2 2 3 5 5 5 6 6 6 7 7 8 8 8 7 6 5 5
4 5 6 4 3 3 3 4 1 8 3 1 6 6 6 4 4 1 3 5 5 6 4 4 3 3 3 1 3 5 5 4 4 4 5 5 6 6 7 7 6 5 5 5
4 4 4 4 3 3 3 6 2 5 5 2 4 4 5 3 3 3 4 6 6 6 6 6 7 6 4 3 5 6 5 4 2 2 3 4 4 5 5 5 5 5 5 5
2 3 2 4 4 5 4 3 2 3 2 4 5 6 9 8 8 8 7 8 8 8 8 8 8 8 7 7 7 8 6 3 4 5 6 5 5 4 5 6 5 5 6 6
1 3 3 3 3 1 1 2 2 4 5 4 5 7 10 10 9 9 8 8 8 8 8 8 9 10 9 8 8 9 5 5 7 8 8 7 7 7 6 6 6 5 4 4
2 2 3 3 2 3 4 5 5 6 6 6 7 9 11 12 11 10 8 8 8 8 8 8 10 11 10 9 9 8 6 6 8 9 7 7 7 8 7 6 5 5 4 4
2 1 3 3 3 5 4 4 6 9 10 11 11 11 11 13 12 11 9 9 8 8 7 8 9 9 8 8 9 7 7 8 9 9 7 7 6 6 7 7 6 5 4 3
1 2 4 4 5 5 4 3 6 10 11 11 12 11 10 11 13 12 10 9 8 8 8 9 9 9 8 8 8 7 7 7 8 8 6 5 4 4 5 6 7 12 9 10
Wind_Direction
210 160 215 222 208 211 240 268 276 276 278 273 219 204 202 190 175 175 173 164 169 182 183 173 170 166 162 162 168 174 171 171 166 165 163 163 168 167 166 169 164 165 164 160
239 237 226 218 229 237 245 258 268 281 281 247 206 203 208 170 169 168 177 177 165 162 167 174 174 171 168 170 174 174 175 174 173 173 169 166 160 165 167 169 165 167 165 165
207 234 216 221 238 242 249 241 248 252 286 6 80 10 333 237 122 154 162 172 168 170 175 178 178 180 175 177 180 180 179 176 174 165 150 146 138 134 152 169 171 175 171 170
234 241 240 229 235 232 253 246 236 236 216 309 93 217 276 263 264 201 177 165 171 176 175 178 182 180 183 184 181 180 180 177 173 166 165 166 168 171 179 175 172 174 175 171
236 219 217 230 236 228 236 248 235 220 160 55 19 128 281 348 282 257 224 181 182 175 177 181 182 181 184 183 182 181 178 177 175 173 174 174 172 170 158 160 166 174 177 175
245 250 219 222 236 228 229 240 360 42 70 40 262 164 269 251 234 241 213 181 176 172 178 182 178 171 177 177 176 175 176 179 177 175 176 177 172 167 164 169 173 176 175 177
271 267 250 232 239 264 213 114 34 359 16 249 261 168 247 267 264 219 186 172 171 165 171 173 174 172 171 171 175 178 178 182 180 177 179 179 176 174 176 175 177 175 174 178
223 267 250 222 201 210 213 146 160 188 211 257 335 223 256 284 299 227 156 155 154 163 175 176 178 173 169 171 175 177 179 182 182 182 183 182 178 177 178 177 175 179 181 181
199 243 257 233 206 177 184 176 166 137 147 99 294 282 299 326 351 17 60 107 135 167 170 169 167 169 166 169 181 181 180 179 180 185 185 183 180 179 179 175 174 175 177 178
182 240 277 255 215 204 170 159 107 119 148 199 284 272 251 267 279 56 75 75 78 142 156 165 170 172 169 166 168 167 173 177 179 182 186 185 183 182 176 170 174 176 179 179
176 195 288 331 189 200 162 134 120 124 151 154 202 267 241 226 193 133 128 145 162 161 167 173 164 156 153 153 157 163 172 172 176 177 175 176 177 173 169 172 177 177 177 177
178 152 235 263 262 185 155 162 144 146 185 151 153 252 268 206 185 150 158 170 147 162 166 154 155 149 152 161 164 168 170 172 174 171 168 171 168 166 169 174 177 175 177 177
154 130 138 331 341 7 76 126 139 131 125 143 156 243 279 190 166 163 165 162 148 150 144 132 144 161 169 172 170 170 175 173 167 165 163 162 165 168 172 173 174 175 175 177
120 115 156 188 210 203 108 72 120 116 133 168 188 190 215 204 195 187 177 153 147 144 144 147 160 167 168 168 172 172 178 174 170 167 166 167 171 175 175 172 172 176 175 177
94 109 133 182 178 135 136 165 142 138 162 166 191 180 205 197 188 179 158 142 140 147 157 163 170 169 166 168 169 171 174 174 174 170 171 175 174 174 172 173 175 176 179 183
69 108 80 22 38 79 59 8 106 110 123 127 127 169 190 129 103 110 133 139 143 155 160 169 175 170 170 175 180 175 176 177 171 173 178 178 172 173 176 177 176 177 181 181
66 96 85 329 335 59 12 337 93 93 87 135 147 171 128 108 98 103 114 115 128 148 152 162 169 173 185 187 184 183 182 172 169 177 180 177 174 179 184 181 178 181 183 180
125 96 106 106 59 149 235 334 96 92 59 66 98 114 114 114 107 81 78 101 107 121 130 145 146 171 198 184 179 175 169 165 171 178 183 180 179 183 179 174 177 183 180 181
141 130 113 108 120 238 305 2 91 111 62 65 107 109 114 119 90 56 49 74 85 98 107 116 129 153 165 172 174 159 157 161 169 182 189 186 182 181 177 178 178 175 169 170
65 104 116 121 131 201 241 310 339 103 86 67 119 129 137 125 104 110 47 60 66 63 66 66 73 84 101 119 138 134 138 143 166 188 191 180 173 172 171 173 169 161 156 161
44 54 111 133 151 236 281 303 336 129 189 169 128 132 115 98 133 122 78 66 67 66 62 63 66 65 57 71 102 103 101 110 135 131 125 124 134 142 145 140 135 132 135 131
136 124 139 133 157 227 304 7 100 165 133 115 108 107 105 104 102 93 82 75 69 64 60 63 71 64 50 56 82 87 79 76 82 88 91 93 100 109 112 111 113 118 128 128
81 160 155 155 180 185 63 102 100 120 114 111 116 119 118 110 105 97 86 80 73 69 66 64 72 66 52 47 65 76 63 72 84 84 82 81 81 78 82 97 104 102 105 115
340 70 103 96 93 91 76 80 81 95 106 105 115 120 116 115 112 104 96 88 79 68 66 69 72 70 58 49 53 58 59 71 85 88 85 83 84 80 72 74 82 90 94 103
281 35 89 102 120 94 69 78 100 101 98 97 99 103 110 113 111 107 100 90 84 77 67 67 71 71 62 54 51 46 52 69 76 79 83 80 79 86 82 70 57 69 65 95
290 176 155 182 179 141 131 105 112 108 106 108 109 103 101 107 111 107 100 92 86 81 75 71 68 65 58 56 52 40 44 64 76 76 75 81 86 88 93 95 76 53 64 68